User: anonymous   Login
Location: Camp Creek
(33.9000°N, 111.8167°W)
Time: 19:15:52
(UTC-07:00)
Language:

Cosmos 2322 Rocket - Orbit

View from above orbital plane
View from above orbital plane
View from above satellite
View from above satellite

Ground track
Ground track

The orbit data is extracted from the following two-line orbital elements,

1 23705U 95058B   14295.09621508  .00000325  00000-0  19228-3 0  3771
2 23705 071.0234 262.1260 0013906 327.3705 032.6557 14.15023394980097
Epoch (UTC): 22 October 2014 02:18:32
Eccentricity: 0.0013906
inclination: 71.0234°
perigee height: 832 km
apogee height: 852 km
right ascension of ascending node: 262.1260°
argument of perigee: 327.3705°
revolutions per day: 14.15023394
mean anomaly at epoch: 32.6557°
orbit number at epoch: 98009

The dashed part of the orbit path shows where the satellite is in the earth's shadow,  

DLR